Terminal Aerodrome Forecast
Issued by NWS Raleigh/Durham, NC

Home | Current Version | Previous Version | Text Only | Print | Product List | Glossary On
Versions: 1 2 3 4 5 6 7 8 9 10 11 12 13 14 15 16 17 18 19 20 21 22 23 24 25 26 27 28 29 30 31 32 33 34 35 36 37 38 39 40 41 42 43 44 45 46 47 48 49 50
000
FTUS42 KRAH 010656 AAA
TAFGSO
TAF AMD
KGSO 010656Z 0107/0206 VRB04KT 5SM BR SKC
      TEMPO 0109/0113 2SM BR SCT002
     FM011300 VRB04KT P6SM FEW060 SCT250=

USA.gov is the U.S. government's official web portal to all federal, state and local government web resources and services.